Location: Eurasberg
(48.3353°N, 11.0839°E)
Time: 20:31:31
(UTC+00:00)

Meteor 1-16 Rocket - Pass Details

Date: 18 January 2026
Orbit: 789 x 905 km, 81.2° (Epoch: 13 February)

Event Time Altitude Azimuth Distance (km) Brightness Sun altitude
Rises 06:12:09 0° 187° (S) 3,362 7.5 -7.9°
Reaches altitude 10° 06:14:34 10° 186° (S) 2,416 6.8 -7.5°
Maximum altitude 06:20:01 83° 100° (E) 820 4.3 -6.7°
Drops below altitude 10° 06:25:22 10° 13° (NNE) 2,377 6.4 -5.9°
Sets 06:27:44 0° 13° (NNE) 3,304 7.2 -5.5°
